This is the latest recevied weather packets stored in our database for station/object KQ4PPF. If no packets are shown the sender has not sent any weather packets the latest 1 day(s).
| Time | Temp. | Humidity | Pressure | Rain* | Wind** | Luminosity | Snow |
|---|---|---|---|---|---|---|---|
| 1778027907 | 21.11° C | 56% | 1010.5 hPa | 0 mm | 0 m/s | 0 W/m² | - |
| 1778027603 | 21.11° C | 57% | 1010.6 hPa | 0 mm | 0 m/s | 0 W/m² | - |
| 1778027299 | 21.11° C | 55% | 1010.8 hPa | 0 mm | 0 m/s | 0 W/m² | - |
| 1778026996 | 21.11° C | 58% | 1010.9 hPa | 0 mm | 0 m/s | 0 W/m² | - |
| 1778026692 | 20.56° C | 60% | 1010.9 hPa | 0 mm | 0 m/s | 0 W/m² | - |
| 1778026389 | 20.56° C | 59% | 1010.8 hPa | 0 mm | 0 m/s | 2 W/m² | - |
| 1778026086 | 20.56° C | 59% | 1010.8 hPa | 0 mm | 0 m/s | 2 W/m² | - |
| 1778025784 | 20° C | 60% | 1010.8 hPa | 0 mm | 0 m/s | 4 W/m² | - |
| 1778025480 | 20° C | 64% | 1010.5 hPa | 0 mm | 0 m/s | 7 W/m² | - |
| 1778025178 | 20.56° C | 65% | 1010.6 hPa | 0 mm | 0 m/s | 9 W/m² | - |
| 1778024875 | 20.56° C | 60% | 1010.9 hPa | 0 mm | 0 m/s | 11 W/m² | - |
| 1778024572 | 20.56° C | 62% | 1010.9 hPa | 0 mm | 0 m/s | 12 W/m² | - |
| 1778024269 | 20.56° C | 64% | 1010.8 hPa | 0 mm | 0 m/s | 13 W/m² | - |
| 1778023967 | 20.56° C | 65% | 1010.7 hPa | 0 mm | 0 m/s | 20 W/m² | - |
| 1778023664 | 20.56° C | 66% | 1010.7 hPa | 0 mm | 0 m/s | 31 W/m² | - |
| 1778023361 | 20.56° C | 64% | 1010.8 hPa | 0 mm | 0 m/s | 31 W/m² | - |
| 1778023057 | 21.11° C | 64% | 1010.8 hPa | 0 mm | 0 m/s | 29 W/m² | - |
| 1778022757 | 21.11° C | 59% | 1010.8 hPa | 0 mm | 0 m/s | 33 W/m² | - |
| 1778022455 | 21.67° C | 56% | 1010.6 hPa | 0 mm | 0 m/s | 31 W/m² | - |
| 1778022151 | 21.11° C | 57% | 1010.6 hPa | 0 mm | 0 m/s | 36 W/m² | - |
| 1778021847 | 21.11° C | 56% | 1010.5 hPa | 0 mm | 0 m/s | 41 W/m² | - |
| 1778021545 | 21.11° C | 58% | 1010.7 hPa | 0 mm | 0 m/s | 26 W/m² | - |
| 1778021240 | 21.11° C | 57% | 1011 hPa | 0 mm | 0 m/s | 30 W/m² | - |
| 1778020938 | 21.11° C | 56% | 1010.9 hPa | 0 mm | 0 m/s | 21 W/m² | - |
| 1778020635 | 21.11° C | 56% | 1010.9 hPa | 0 mm | 0 m/s | 17 W/m² | - |
* Rain latest hour (hover to see other rain measurements)
** Current wind speed in m/s (hover to see current wind gust speed)